Time,TemperatureF,DewpointF,PressureIn,WindDirection,WindDirectionDegrees,WindSpeedMPH,WindSpeedGustMPH,Humidity,HourlyPrecipIn,Conditions,Clouds,dailyrainin,SoftwareType,DateUTC
2013-01-10 00:11:00,46.9,46.0,30.40,WSW,255,0.0,0.0,96,0.00,,,0.00,weatherlink.com 1.10,2013-01-10 05:11:00,
2013-01-10 00:26:00,47.2,46.0,30.40,WSW,252,0.0,1.0,96,0.00,,,0.00,weatherlink.com 1.10,2013-01-10 05:26:00,
2013-01-10 00:56:00,48.4,47.0,30.40,WSW,257,0.0,1.0,96,0.00,,,0.00,weatherlink.com 1.10,2013-01-10 05:56:00,
2013-01-10 01:11:00,48.9,48.0,30.41,SW,217,0.0,1.0,96,0.00,,,0.00,weatherlink.com 1.10,2013-01-10 06:11:00,
2013-01-10 01:26:00,50.6,49.0,30.41,SW,236,0.0,2.0,94,0.00,,,0.00,weatherlink.com 1.10,2013-01-10 06:26:00,
2013-01-10 01:41:00,52.1,50.0,30.41,WSW,255,0.0,3.0,93,0.00,,,0.00,weatherlink.com 1.10,2013-01-10 06:41:00,
2013-01-10 01:56:00,52.4,50.0,30.42,WNW,282,0.0,2.0,91,0.00,,,0.00,weatherlink.com 1.10,2013-01-10 06:56:00,
2013-01-10 02:11:00,52.5,50.0,30.42,WSW,245,0.0,3.0,91,0.00,,,0.00,weatherlink.com 1.10,2013-01-10 07:11:00,
2013-01-10 02:26:00,52.3,50.0,30.42,WSW,245,0.0,1.0,92,0.00,,,0.00,weatherlink.com 1.10,2013-01-10 07:26:00,
2013-01-10 02:41:00,53.3,51.0,30.42,West,273,2.0,2.0,91,0.00,,,0.00,weatherlink.com 1.10,2013-01-10 07:41:00,
2013-01-10 02:56:00,53.9,51.0,30.43,West,271,0.0,4.0,89,0.00,,,0.00,weatherlink.com 1.10,2013-01-10 07:56:00,
2013-01-10 03:11:00,53.7,51.0,30.43,SW,228,0.0,0.0,89,0.00,,,0.00,weatherlink.com 1.10,2013-01-10 08:11:00,
2013-01-10 03:26:00,52.7,50.0,30.42,SW,233,0.0,0.0,89,0.00,,,0.00,weatherlink.com 1.10,2013-01-10 08:26:00,
2013-01-10 03:41:00,51.8,49.0,30.42,SW,235,0.0,0.0,91,0.00,,,0.00,weatherlink.com 1.10,2013-01-10 08:41:00,
2013-01-10 03:56:00,51.0,49.0,30.42,SW,236,0.0,0.0,92,0.00,,,0.00,weatherlink.com 1.10,2013-01-10 08:56:00,
2013-01-10 04:11:00,50.9,49.0,30.41,SW,235,0.0,0.0,93,0.00,,,0.00,weatherlink.com 1.10,2013-01-10 09:11:00,
2013-01-10 04:26:00,50.5,49.0,30.41,SW,235,0.0,0.0,93,0.00,,,0.00,weatherlink.com 1.10,2013-01-10 09:26:00,
2013-01-10 04:41:00,49.8,48.0,30.40,SW,235,0.0,0.0,93,0.00,,,0.00,weatherlink.com 1.10,2013-01-10 09:41:00,
2013-01-10 04:56:00,49.5,48.0,30.40,WSW,250,0.0,0.0,94,0.00,,,0.00,weatherlink.com 1.10,2013-01-10 09:56:00,
2013-01-10 05:11:00,48.6,47.0,30.41,WSW,252,0.0,0.0,94,0.00,,,0.00,weatherlink.com 1.10,2013-01-10 10:11:00,
2013-01-10 05:26:00,48.5,48.0,30.42,NNW,327,0.0,0.0,96,0.00,,,0.00,weatherlink.com 1.10,2013-01-10 10:26:00,
2013-01-10 05:41:00,49.0,48.0,30.43,NNE,21,0.0,2.0,96,0.00,,,0.00,weatherlink.com 1.10,2013-01-10 10:41:00,
2013-01-10 05:56:00,49.2,48.0,30.44,NNE,16,0.0,2.0,96,0.00,,,0.00,weatherlink.com 1.10,2013-01-10 10:56:00,
2013-01-10 06:11:00,49.3,48.0,30.45,East,89,0.0,1.0,95,0.00,,,0.00,weatherlink.com 1.10,2013-01-10 11:11:00,
2013-01-10 06:26:00,49.0,48.0,30.45,NNE,32,0.0,0.0,95,0.00,,,0.00,weatherlink.com 1.10,2013-01-10 11:26:00,
2013-01-10 06:41:00,47.6,46.0,30.46,NNE,33,0.0,0.0,94,0.00,,,0.00,weatherlink.com 1.10,2013-01-10 11:41:00,
2013-01-10 06:56:00,48.1,47.0,30.46,NNE,33,0.0,0.0,95,0.00,,,0.00,weatherlink.com 1.10,2013-01-10 11:56:00,
2013-01-10 07:12:00,48.3,47.0,30.47,NE,50,0.0,1.0,95,0.00,,,0.00,weatherlink.com 1.10,2013-01-10 12:12:00,
2013-01-10 07:27:00,49.0,47.0,30.48,NNE,16,1.0,3.0,91,0.00,,,0.00,weatherlink.com 1.10,2013-01-10 12:27:00,
2013-01-10 07:42:00,49.4,46.0,30.48,North,6,0.0,1.0,89,0.00,,,0.00,weatherlink.com 1.10,2013-01-10 12:42:00,
2013-01-10 07:57:00,49.4,46.0,30.50,NNW,342,0.0,1.0,87,0.00,,,0.00,weatherlink.com 1.10,2013-01-10 12:57:00,
2013-01-10 08:12:00,49.7,45.0,30.50,North,8,0.0,2.0,84,0.00,,,0.00,weatherlink.com 1.10,2013-01-10 13:12:00,
2013-01-10 08:27:00,49.6,45.0,30.51,NNE,33,0.0,1.0,83,0.00,,,0.00,weatherlink.com 1.10,2013-01-10 13:27:00,
2013-01-10 08:42:00,49.8,45.0,30.52,East,79,1.0,2.0,82,0.00,,,0.00,weatherlink.com 1.10,2013-01-10 13:42:00,
2013-01-10 08:57:00,50.7,45.0,30.51,North,5,0.0,2.0,81,0.00,,,0.00,weatherlink.com 1.10,2013-01-10 13:57:00,
2013-01-10 09:12:00,51.6,46.0,30.52,NE,50,3.0,4.0,80,0.00,,,0.00,weatherlink.com 1.10,2013-01-10 14:12:00,
2013-01-10 09:27:00,52.6,46.0,30.52,NE,54,4.0,9.0,79,0.00,,,0.00,weatherlink.com 1.10,2013-01-10 14:27:00,
2013-01-10 09:42:00,53.8,48.0,30.52,East,85,4.0,7.0,80,0.00,,,0.00,weatherlink.com 1.10,2013-01-10 14:42:00,
2013-01-10 09:57:00,55.0,49.0,30.52,ENE,68,4.0,10.0,80,0.00,,,0.00,weatherlink.com 1.10,2013-01-10 14:57:00,
2013-01-10 10:12:00,56.0,49.0,30.53,ENE,63,2.0,9.0,76,0.00,,,0.00,weatherlink.com 1.10,2013-01-10 15:12:00,
2013-01-10 10:27:00,56.7,48.0,30.52,East,85,7.0,11.0,73,0.00,,,0.00,weatherlink.com 1.10,2013-01-10 15:27:00,
2013-01-10 10:57:00,57.8,47.0,30.52,East,94,5.0,11.0,68,0.00,,,0.00,weatherlink.com 1.10,2013-01-10 15:57:00,
2013-01-10 11:12:00,58.5,48.0,30.51,ENE,65,3.0,9.0,69,0.00,,,0.00,weatherlink.com 1.10,2013-01-10 16:12:00,
2013-01-10 11:27:00,58.9,48.0,30.50,East,85,2.0,6.0,67,0.00,,,0.00,weatherlink.com 1.10,2013-01-10 16:27:00,
2013-01-10 11:42:00,59.7,48.0,30.49,ENE,64,5.0,7.0,66,0.00,,,0.00,weatherlink.com 1.10,2013-01-10 16:42:00,
2013-01-10 11:57:00,59.4,48.0,30.48,ESE,116,5.0,8.0,65,0.00,,,0.00,weatherlink.com 1.10,2013-01-10 16:57:00,
2013-01-10 12:12:00,60.6,49.0,30.47,East,96,4.0,8.0,65,0.00,,,0.00,weatherlink.com 1.10,2013-01-10 17:12:00,
2013-01-10 12:27:00,62.3,49.0,30.46,East,98,7.0,7.0,62,0.00,,,0.00,weatherlink.com 1.10,2013-01-10 17:27:00,
2013-01-10 12:42:00,62.6,47.0,30.46,ENE,74,4.0,6.0,58,0.00,,,0.00,weatherlink.com 1.10,2013-01-10 17:42:00,
2013-01-10 12:57:00,63.2,48.0,30.46,NNE,30,9.0,10.0,57,0.00,,,0.00,weatherlink.com 1.10,2013-01-10 17:57:00,
2013-01-10 13:12:00,62.7,47.0,30.45,East,83,5.0,8.0,57,0.00,,,0.00,weatherlink.com 1.10,2013-01-10 18:12:00,
2013-01-10 13:28:00,62.1,46.0,30.44,NNE,22,6.0,8.0,57,0.00,,,0.00,weatherlink.com 1.10,2013-01-10 18:28:00,
2013-01-10 13:43:00,62.1,46.0,30.44,ENE,72,5.0,10.0,56,0.00,,,0.00,weatherlink.com 1.10,2013-01-10 18:43:00,
2013-01-10 13:58:00,61.5,46.0,30.44,ENE,64,6.0,7.0,57,0.00,,,0.00,weatherlink.com 1.10,2013-01-10 18:58:00,
2013-01-10 14:13:00,61.4,46.0,30.44,East,98,0.0,7.0,58,0.00,,,0.00,weatherlink.com 1.10,2013-01-10 19:13:00,
2013-01-10 14:28:00,62.0,47.0,30.45,East,95,3.0,7.0,59,0.00,,,0.00,weatherlink.com 1.10,2013-01-10 19:28:00,
2013-01-10 14:43:00,61.9,46.0,30.46,NW,326,2.0,6.0,57,0.00,,,0.00,weatherlink.com 1.10,2013-01-10 19:43:00,
2013-01-10 14:58:00,61.5,46.0,30.45,East,91,3.0,5.0,57,0.00,,,0.00,weatherlink.com 1.10,2013-01-10 19:58:00,
2013-01-10 15:13:00,60.6,46.0,30.46,ENE,75,2.0,5.0,58,0.00,,,0.00,weatherlink.com 1.10,2013-01-10 20:13:00,
2013-01-10 15:28:00,60.2,45.0,30.45,East,82,1.0,6.0,58,0.00,,,0.00,weatherlink.com 1.10,2013-01-10 20:28:00,
2013-01-10 15:43:00,59.9,45.0,30.46,ENE,77,1.0,5.0,59,0.00,,,0.00,weatherlink.com 1.10,2013-01-10 20:43:00,
2013-01-10 15:58:00,59.5,45.0,30.46,ESE,105,3.0,3.0,59,0.00,,,0.00,weatherlink.com 1.10,2013-01-10 20:58:00,
2013-01-10 16:13:00,58.8,45.0,30.45,ENE,65,0.0,4.0,61,0.00,,,0.00,weatherlink.com 1.10,2013-01-10 21:13:00,
2013-01-10 16:28:00,57.5,45.0,30.46,SSE,149,0.0,0.0,64,0.00,,,0.00,weatherlink.com 1.10,2013-01-10 21:28:00,
2013-01-10 16:43:00,55.8,45.0,30.45,SSE,149,0.0,0.0,68,0.00,,,0.00,weatherlink.com 1.10,2013-01-10 21:43:00,
2013-01-10 16:58:00,54.2,45.0,30.45,SSE,149,0.0,0.0,71,0.00,,,0.00,weatherlink.com 1.10,2013-01-10 21:58:00,
2013-01-10 17:13:00,53.2,45.0,30.45,SSE,150,0.0,0.0,75,0.00,,,0.00,weatherlink.com 1.10,2013-01-10 22:13:00,
2013-01-10 17:28:00,52.0,45.0,30.45,ESE,103,0.0,0.0,76,0.00,,,0.00,weatherlink.com 1.10,2013-01-10 22:28:00,
2013-01-10 17:43:00,50.6,43.0,30.46,ESE,103,0.0,0.0,75,0.00,,,0.00,weatherlink.com 1.10,2013-01-10 22:43:00,
2013-01-10 17:58:00,49.4,44.0,30.46,ESE,103,0.0,0.0,80,0.00,,,0.00,weatherlink.com 1.10,2013-01-10 22:58:00,
2013-01-10 18:13:00,48.5,44.0,30.47,ESE,103,0.0,0.0,84,0.00,,,0.00,weatherlink.com 1.10,2013-01-10 23:13:00,
2013-01-10 18:28:00,47.5,42.0,30.47,ESE,103,0.0,0.0,82,0.00,,,0.00,weatherlink.com 1.10,2013-01-10 23:28:00,
2013-01-10 18:43:00,46.3,42.0,30.47,ESE,103,0.0,0.0,85,0.00,,,0.00,weatherlink.com 1.10,2013-01-10 23:43:00,
2013-01-10 18:58:00,45.5,42.0,30.47,ESE,103,0.0,0.0,86,0.00,,,0.00,weatherlink.com 1.10,2013-01-10 23:58:00,
2013-01-10 19:13:00,44.2,41.0,30.47,ESE,103,0.0,0.0,88,0.00,,,0.00,weatherlink.com 1.10,2013-01-11 00:13:00,
2013-01-10 19:28:00,44.1,41.0,30.47,ESE,103,0.0,0.0,89,0.00,,,0.00,weatherlink.com 1.10,2013-01-11 00:28:00,
2013-01-10 19:43:00,43.5,41.0,30.46,ESE,103,0.0,0.0,89,0.00,,,0.00,weatherlink.com 1.10,2013-01-11 00:43:00,
2013-01-10 19:58:00,43.1,40.0,30.46,ESE,103,0.0,0.0,89,0.00,,,0.00,weatherlink.com 1.10,2013-01-11 00:58:00,
2013-01-10 20:13:00,43.1,40.0,30.46,ESE,103,0.0,0.0,87,0.00,,,0.00,weatherlink.com 1.10,2013-01-11 01:13:00,
2013-01-10 20:28:00,42.6,39.0,30.46,ESE,103,0.0,0.0,88,0.00,,,0.00,weatherlink.com 1.10,2013-01-11 01:28:00,
2013-01-10 20:43:00,42.3,39.0,30.46,ESE,103,0.0,0.0,89,0.00,,,0.00,weatherlink.com 1.10,2013-01-11 01:43:00,
2013-01-10 20:58:00,42.1,39.0,30.46,ESE,103,0.0,0.0,87,0.00,,,0.00,weatherlink.com 1.10,2013-01-11 01:58:00,
2013-01-10 21:13:00,42.3,39.0,30.46,ESE,103,0.0,0.0,87,0.00,,,0.00,weatherlink.com 1.10,2013-01-11 02:13:00,
2013-01-10 21:28:00,41.7,38.0,30.46,ESE,103,0.0,0.0,87,0.00,,,0.00,weatherlink.com 1.10,2013-01-11 02:28:00,
2013-01-10 21:43:00,41.8,39.0,30.47,ESE,103,0.0,0.0,88,0.00,,,0.00,weatherlink.com 1.10,2013-01-11 02:43:00,
2013-01-10 21:58:00,41.9,39.0,30.47,ESE,103,0.0,0.0,88,0.00,,,0.00,weatherlink.com 1.10,2013-01-11 02:58:00,
2013-01-10 22:13:00,41.7,38.0,30.47,ESE,103,0.0,0.0,87,0.00,,,0.00,weatherlink.com 1.10,2013-01-11 03:13:00,
2013-01-10 22:28:00,40.9,38.0,30.45,SE,138,0.0,0.0,88,0.00,,,0.00,weatherlink.com 1.10,2013-01-11 03:28:00,
2013-01-10 22:43:00,40.4,38.0,30.45,SE,139,0.0,0.0,89,0.00,,,0.00,weatherlink.com 1.10,2013-01-11 03:43:00,
2013-01-10 22:58:00,40.8,38.0,30.46,SW,222,0.0,2.0,88,0.00,,,0.00,weatherlink.com 1.10,2013-01-11 03:58:00,
2013-01-10 23:13:00,40.9,37.0,30.45,ESE,113,0.0,0.0,86,0.00,,,0.00,weatherlink.com 1.10,2013-01-11 04:13:00,
2013-01-10 23:28:00,40.7,37.0,30.45,SE,124,0.0,1.0,85,0.00,,,0.00,weatherlink.com 1.10,2013-01-11 04:28:00,
2013-01-10 23:43:00,41.5,36.0,30.45,NE,44,0.0,3.0,82,0.00,,,0.00,weatherlink.com 1.10,2013-01-11 04:43:00,
2013-01-10 23:58:00,43.2,36.0,30.45,East,92,0.0,5.0,76,0.00,,,0.00,weatherlink.com 1.10,2013-01-11 04:58:00,